Wind_Speed
9 9 8 9 9 8 6 6 6 5 5 4 4 4 4 3 2 2 2 4 6 9 12 12 6 4 8 10 10 12 13 14 16 17 19 21 22 22 21 20 21 21 22 22 22 23 22 21 21 21 22 22 21 21 20 18 17 17 17 18 19 19 19 18 18 19 18 18 18 18 19 19 20 21
10 9 8 8 8 7 6 6 6 6 6 5 5 5 5 5 5 3 2 3 8 9 10 12 9 5 6 8 9 12 13 15 16 17 19 21 22 23 22 22 23 23 24 25 25 26 26 24 23 22 23 24 24 24 23 22 21 20 20 21 22 22 22 21 20 20 20 19 18 18 19 19 20 21
11 10 10 9 10 8 7 7 7 7 6 4 4 4 5 7 7 7 5 4 6 9 10 11 12 11 11 11 11 13 14 14 15 16 19 21 22 22 22 23 25 26 27 27 27 27 26 24 22 21 22 23 23 24 24 24 24 24 24 24 25 25 25 25 23 22 21 21 21 20 20 21 22 22
11 11 12 11 11 10 9 9 8 8 7 5 5 6 6 8 8 9 8 5 7 11 12 13 13 12 13 15 14 14 14 15 15 17 19 20 21 22 23 24 25 26 27 26 25 24 23 23 23 23 23 23 24 25 25 25 26 26 27 27 25 24 24 24 24 24 23 23 23 23 23 23 23 24
11 11 10 9 9 9 9 9 8 8 7 6 7 8 9 9 8 8 9 8 9 12 13 13 14 14 15 16 15 15 15 15 15 16 18 19 21 22 23 24 24 24 25 25 25 25 24 24 25 25 25 25 26 27 27 28 28 28 28 27 25 25 24 23 22 23 24 24 25 26 26 26 25 25
13 12 11 10 9 9 9 10 9 9 8 7 8 9 9 7 6 7 8 7 9 13 15 15 15 16 16 16 16 16 15 15 14 15 17 19 20 21 22 23 24 24 24 25 25 25 24 24 25 25 26 27 28 28 29 31 31 30 29 28 27 27 26 24 23 24 26 26 27 28 28 28 28 27
14 13 13 12 10 10 9 9 9 9 8 8 9 9 8 7 7 7 7 8 9 12 16 18 19 19 20 20 21 20 17 17 17 17 18 19 19 20 21 22 23 23 23 24 24 25 25 25 26 27 28 29 28 29 29 30 30 30 30 30 29 29 28 27 27 28 29 29 30 30 30 30 29 28
16 15 14 13 11 10 10 10 9 8 8 9 9 9 9 8 8 9 10 10 11 11 14 20 22 22 23 24 25 25 22 19 19 18 19 19 19 20 20 20 21 22 23 24 25 26 27 27 27 28 29 29 28 29 29 29 30 30 31 32 31 31 30 30 31 32 32 33 33 32 32 31 30 29
17 17 15 14 12 12 11 10 9 8 8 9 10 9 8 8 9 12 13 13 14 14 16 20 22 23 23 24 25 24 22 21 20 19 19 19 20 20 20 20 21 21 22 23 24 25 26 25 26 27 28 29 29 30 30 30 31 31 32 32 32 33 32 33 33 34 35 35 34 33 32 30 30 29
18 17 16 14 13 12 11 11 10 9 8 9 9 9 8 8 10 12 13 14 15 17 19 20 22 23 24 23 22 21 19 20 20 19 19 20 20 19 20 20 20 20 21 22 23 24 24 25 26 28 29 30 31 31 31 32 33 33 33 33 33 34 35 35 36 36 37 36 35 33 32 31 31 31
18 17 17 15 14 13 13 13 11 10 9 9 10 9 9 9 10 11 13 15 16 18 19 20 21 22 21 20 20 20 19 18 18 17 18 19 19 19 19 19 20 20 22 23 24 25 26 26 27 28 29 30 30 31 33 34 34 35 35 35 35 36 36 36 37 37 37 36 34 34 33 33 32 32
18 17 17 16 16 16 16 16 14 13 12 12 10 10 10 11 12 14 16 17 17 19 20 20 20 20 20 20 21 20 18 17 17 17 17 19 20 21 20 20 20 21 23 24 25 26 27 27 27 26 27 28 29 30 30 31 33 34 34 34 34 35 36 37 37 36 34 33 34 34 35 35 35 35
18 18 18 17 17 18 18 17 17 16 15 14 13 13 13 14 16 18 19 20 20 20 20 20 19 18 19 20 20 18 17 17 17 18 17 18 19 18 19 20 22 23 24 26 26 25 25 26 26 25 26 27 27 27 28 29 30 30 31 32 33 33 34 33 33 33 32 33 34 36 37 38 38 38
19 19 18 18 17 17 17 17 18 18 17 17 17 17 17 19 20 21 22 23 22 20 18 18 18 17 17 18 18 17 18 18 17 16 15 16 17 17 18 20 22 22 22 24 25 24 24 26 26 25 26 28 28 28 29 29 29 29 29 31 33 33 32 33 34 35 36 37 39 40 40 40 40 41
20 20 19 19 18 18 17 18 18 19 19 19 19 20 21 23 23 24 23 23 22 19 17 17 17 16 17 18 19 19 19 17 16 15 15 16 18 17 15 16 18 19 19 21 24 25 25 25 26 27 28 29 29 29 29 29 29 30 30 31 33 34 36 38 39 41 41 41 41 41 41 42 43 44
20 20 20 19 19 19 19 19 19 20 20 20 20 21 23 24 24 24 23 23 23 21 18 17 18 19 20 20 19 19 17 16 16 17 16 16 16 16 15 16 18 20 21 23 25 27 28 26 26 27 26 27 28 28 28 29 29 31 32 33 34 35 36 37 38 40 41 41 42 42 43 43 44 45
20 20 19 18 17 17 18 18 19 21 22 22 22 23 23 23 23 22 22 24 26 26 23 22 22 24 23 20 18 18 17 16 16 14 15 16 16 18 18 20 22 23 24 25 26 27 27 25 24 25 25 27 29 29 29 30 31 32 33 33 34 35 36 37 39 40 41 42 43 43 43 44 46 49
19 19 19 18 16 15 16 18 20 23 25 24 23 21 20 20 21 21 22 23 24 25 26 27 27 27 25 22 22 20 17 15 13 13 16 19 19 20 21 22 25 26 25 25 24 24 24 24 24 25 26 27 29 30 29 29 28 29 30 32 35 38 41 42 43 44 45 44 43 43 45 49 52 55
17 17 17 17 16 16 18 21 22 24 24 21 19 17 18 18 18 18 19 20 20 21 21 22 23 24 23 22 21 17 13 14 16 18 20 20 20 21 22 22 23 23 23 24 23 21 21 23 23 24 25 27 28 27 27 27 28 30 33 37 40 42 43 44 44 45 45 45 45 48 51 54 56 57
16 16 16 16 17 18 20 23 23 22 21 19 16 16 17 17 16 17 19 19 19 19 19 20 21 22 21 19 16 15 15 18 21 20 19 20 21 20 18 18 20 20 20 22 23 22 22 22 22 23 24 25 26 27 28 31 33 36 38 38 39 39 40 41 42 44 45 47 50 53 55 56 57 57
17 16 16 16 18 19 21 21 21 20 20 18 16 15 14 15 16 18 18 17 16 16 17 17 18 19 19 18 17 19 21 22 21 18 19 22 23 19 15 14 16 18 19 21 22 22 21 20 20 22 24 25 27 29 32 35 36 36 35 35 35 36 38 40 43 45 48 51 54 56 56 57 56 56
17 17 17 17 18 19 18 18 19 19 19 18 16 13 12 14 15 16 15 13 12 13 13 13 14 15 17 18 20 21 22 20 19 20 24 26 24 19 15 15 16 17 20 20 18 17 18 19 21 23 25 26 28 29 31 32 33 32 32 33 34 35 38 42 44 46 48 52 54 55 54 53 52 52
17 17 17 18 19 18 16 16 19 19 18 16 14 11 10 12 13 12 11 10 10 11 13 14 16 17 18 19 20 20 20 19 19 22 26 28 26 22 19 19 16 12 13 14 16 18 19 20 21 23 20 17 20 27 29 29 30 32 32 34 34 36 40 43 44 46 47 50 52 52 50 48 46 46
16 16 18 20 18 16 16 18 20 18 16 14 13 11 11 12 13 12 12 12 12 13 15 17 18 18 18 18 17 17 18 18 19 21 22 22 21 20 19 18 15 12 14 18 20 21 21 21 23 25 21 14 16 25 28 29 32 33 33 34 35 37 42 43 43 44 46 46 47 46 45 43 42 42
16 15 17 17 15 15 17 18 16 14 13 13 14 14 14 14 15 15 16 17 16 16 16 17 17 16 16 16 16 16 17 18 19 20 17 13 12 14 16 18 18 19 22 24 24 22 22 23 24 25 24 20 20 24 28 31 35 35 32 33 35 37 41 42 42 42 42 42 41 40 40 40 40 41
16 14 14 14 15 16 16 13 11 10 11 12 14 15 16 16 17 17 17 17 15 14 14 14 14 14 15 16 17 17 18 18 17 16 15 14 17 20 22 23 22 23 25 26 26 24 24 25 25 23 21 21 22 24 25 29 34 35 33 34 37 38 39 39 39 39 39 38 37 37 38 39 39 40
12 11 13 17 19 18 15 11 9 9 10 12 14 15 15 16 15 14 14 14 13 13 14 14 14 14 15 16 17 17 16 15 15 16 17 20 23 24 24 24 23 24 26 27 27 26 26 27 27 24 22 21 20 20 19 23 29 34 36 37 39 38 37 37 36 37 37 36 36 38 39 38 36 36
9 9 11 14 16 15 13 10 9 9 10 12 13 13 13 12 11 11 12 11 10 11 12 12 12 14 15 16 16 16 15 16 18 20 21 22 22 21 21 22 23 24 25 25 26 27 27 27 26 24 23 23 20 16 17 21 27 32 35 36 36 36 37 36 35 35 35 36 36 37 36 36 35 34
10 10 9 10 12 12 11 10 9 9 10 11 11 11 11 10 8 9 9 9 10 10 10 9 12 15 16 16 16 17 19 21 22 22 21 20 19 19 20 22 23 24 24 24 25 25 23 23 23 22 23 25 23 21 21 23 28 33 34 33 33 35 36 35 34 35 36 36 36 36 35 35 36 35
11 10 9 10 10 9 9 8 8 8 9 10 10 9 9 9 9 9 9 9 10 11 10 9 11 13 14 14 16 19 21 22 21 19 19 19 19 18 19 22 25 26 25 23 22 21 20 20 20 20 23 26 25 24 24 24 27 34 36 33 32 33 34 35 37 36 35 35 36 36 36 36 36 34
11 11 9 8 7 8 8 8 8 8 9 9 9 8 9 10 9 9 10 10 11 13 13 12 12 12 12 13 17 19 20 19 18 17 18 18 19 19 21 22 24 26 25 22 19 19 20 21 20 20 23 26 26 25 25 26 27 31 34 34 31 31 33 37 38 36 35 36 38 37 35 35 34 33
12 10 8 7 8 9 9 9 9 9 9 11 10 9 10 11 10 9 10 12 15 17 17 14 12 10 10 14 17 18 18 18 18 17 17 18 20 21 22 21 21 23 23 22 21 21 22 22 21 21 22 24 25 25 26 28 29 29 31 32 32 32 34 35 34 35 37 37 36 36 35 34 34 34
13 10 9 9 10 10 11 12 11 11 12 15 15 13 13 13 12 11 12 13 13 12 9 8 8 10 13 16 17 17 17 17 17 17 17 19 21 22 21 20 20 21 21 21 23 24 23 22 23 24 25 24 25 24 23 27 31 30 28 30 32 32 32 33 33 35 36 34 33 34 35 35 35 35
12 11 11 13 14 14 13 12 11 11 13 13 13 12 11 11 10 11 9 5 6 8 8 10 12 14 16 16 16 16 17 17 17 17 19 19 19 20 20 19 19 19 20 21 23 24 23 23 24 25 26 25 25 25 24 24 26 28 28 29 30 31 31 33 34 33 33 32 31 30 31 34 35 34
12 12 13 13 13 12 11 10 9 10 10 6 4 5 6 7 11 9 4 3 8 9 11 14 16 15 15 15 16 16 16 16 17 18 18 18 18 19 19 18 18 20 20 20 22 24 23 23 23 23 22 21 22 23 23 20 20 24 28 29 29 30 32 34 34 32 31 30 28 25 25 29 34 36
11 11 12 12 10 9 9 9 9 9 7 5 5 5 5 9 11 6 1 4 8 10 14 16 14 13 14 15 15 15 15 16 18 18 17 18 19 19 18 17 18 21 21 20 24 26 23 20 20 18 14 11 11 13 17 23 25 25 26 28 28 30 32 34 34 31 28 28 27 24 21 24 32 38
10 11 11 10 8 8 9 11 10 7 5 4 6 7 7 9 10 4 3 8 10 11 13 14 13 12 13 13 13 14 15 16 17 16 17 18 18 17 16 17 18 20 21 22 26 26 21 17 18 17 11 8 7 7 13 25 31 29 26 27 29 31 33 34 33 30 27 26 26 26 24 26 33 37
9 9 8 8 7 7 7 7 5 4 2 1 4 7 9 11 11 5 3 8 11 12 11 11 10 12 13 14 14 16 16 15 15 16 17 18 17 16 17 18 18 19 22 24 25 23 19 16 17 16 11 8 7 7 10 19 27 29 29 28 28 31 33 33 32 30 28 26 26 28 28 28 31 32
9 7 6 6 5 4 4 4 4 5 4 3 4 6 9 12 13 7 5 7 9 11 11 10 11 13 14 14 15 15 15 15 15 16 17 16 17 18 18 18 19 20 22 21 21 22 19 16 17 19 16 12 11 13 15 18 22 27 30 29 28 31 33 33 32 30 28 28 30 31 31 30 30 30
9 8 7 5 3 3 3 3 3 4 5 6 7 8 10 14 13 10 8 7 7 12 14 12 13 14 15 14 14 14 14 15 15 16 16 17 18 19 19 19 20 20 19 18 19 20 19 18 20 22 21 18 18 20 21 20 20 24 29 30 30 32 32 32 33 32 28 28 30 30 30 31 32 32
10 10 9 5 2 2 3 4 5 5 6 7 8 9 11 11 8 6 7 7 9 13 15 14 13 14 13 12 12 13 14 15 15 15 16 17 18 19 19 19 20 19 17 17 18 19 19 21 24 24 21 20 21 19 16 12 13 19 26 30 33 34 33 32 32 31 28 28 30 29 27 26 26 27
13 12 7 3 2 3 4 5 5 5 5 7 8 8 7 6 3 5 6 8 10 13 14 13 12 11 11 11 12 13 14 15 15 16 16 17 18 18 18 19 18 18 18 18 18 20 23 24 24 21 19 18 18 14 10 8 11 18 24 29 33 35 34 33 32 30 27 29 32 30 27 24 18 15
11 8 4 2 2 4 4 4 5 5 5 8 9 8 7 8 8 10 9 11 11 12 12 10 9 9 10 11 11 12 14 15 16 16 17 17 18 18 18 19 19 19 20 20 20 22 25 25 24 21 18 16 14 13 12 12 15 20 23 26 31 34 35 34 34 31 29 30 32 30 27 25 18 13
8 6 5 4 5 6 6 7 8 8 7 9 10 8 6 6 7 8 10 11 11 9 8 8 8 9 9 10 11 13 14 15 16 17 16 17 18 18 18 19 20 20 20 20 21 23 24 25 25 22 16 13 13 13 13 13 16 19 22 25 29 32 33 33 34 33 32 33 33 31 30 30 28 23
8 6 6 8 9 9 10 9 9 10 11 13 11 7 2 3 5 7 9 11 11 9 8 7 8 8 8 9 11 13 14 15 16 15 15 17 17 17 18 19 19 20 19 19 21 23 23 25 25 22 15 13 14 13 13 14 16 20 23 25 27 29 30 30 30 30 29 32 35 33 31 32 33 32
Wind_Direction
216 229 232 234 242 252 262 268 270 275 278 276 273 263 256 251 255 288 290 291 297 303 310 311 302 237 244 252 254 253 256 266 268 267 268 270 275 278 277 275 274 275 277 278 280 282 282 282 279 275 270 268 268 270 275 280 284 289 290 290 291 293 293 292 288 287 286 287 288 289 291 290 288 284
212 226 235 245 250 247 252 263 265 262 258 254 251 253 257 252 244 248 268 280 283 286 288 288 291 286 258 256 264 261 263 273 272 268 270 272 274 277 278 277 274 273 274 275 276 278 280 281 280 277 274 270 267 267 269 273 278 283 286 288 289 288 289 289 288 285 284 284 286 288 292 293 293 292
212 217 218 233 247 249 253 258 257 258 257 247 245 250 245 244 246 246 244 257 270 271 273 279 286 290 284 281 279 269 266 272 273 271 271 271 271 272 272 273 272 273 274 274 275 276 277 278 276 276 277 275 272 270 270 271 274 278 283 286 287 287 286 285 285 284 283 283 286 289 292 293 293 293
217 218 214 220 230 235 242 250 253 254 252 245 244 250 245 240 246 251 252 262 276 275 277 282 286 289 290 291 289 277 267 265 266 268 269 270 270 269 269 269 270 272 274 275 276 276 277 278 277 278 279 278 276 275 274 274 276 278 281 283 284 286 286 284 283 283 282 282 284 288 293 294 295 294
225 228 225 225 226 229 236 243 247 247 243 242 244 247 242 238 245 252 252 259 277 284 284 285 289 294 293 289 287 286 279 271 267 265 265 268 270 270 272 272 272 272 273 274 274 275 278 279 278 278 279 278 277 276 276 277 278 279 278 278 281 285 286 283 283 286 286 285 284 288 292 293 294 296
227 233 238 240 236 235 240 240 243 247 245 243 250 252 246 246 260 268 270 281 292 294 295 297 299 302 300 293 292 295 293 289 285 277 270 270 271 271 271 271 272 273 272 272 273 274 276 276 276 276 276 277 276 275 276 277 278 278 275 274 278 283 284 280 282 286 288 288 286 287 290 291 292 293
222 226 231 235 235 234 239 241 240 242 246 247 251 257 264 273 278 272 278 293 296 292 293 295 296 299 299 296 296 297 294 290 290 286 280 277 275 273 272 270 271 272 271 272 272 272 273 273 273 272 273 275 275 275 275 275 275 274 273 273 276 280 281 279 280 283 286 287 287 286 287 288 289 289
218 221 224 227 230 230 235 243 243 241 248 251 249 254 262 268 272 272 271 270 271 275 281 286 291 296 297 295 295 295 290 286 287 284 281 281 280 278 277 273 272 273 273 274 272 271 272 273 273 272 273 274 275 275 275 275 274 273 272 272 273 276 278 279 280 283 285 286 285 284 284 284 285 284
215 216 218 222 224 225 230 235 239 243 249 253 257 261 262 260 271 282 282 277 274 273 274 280 290 295 293 290 292 291 285 282 285 283 280 283 283 282 282 279 277 277 277 275 274 273 274 274 274 274 275 275 274 274 274 275 276 275 274 273 272 274 276 278 281 283 283 284 284 282 280 280 280 280
216 215 215 217 217 219 228 229 228 233 239 247 258 263 264 272 287 296 297 293 287 280 275 276 282 286 285 284 286 286 282 278 280 281 284 287 286 283 283 282 281 281 280 277 276 275 275 276 275 276 277 277 275 273 273 274 276 276 275 274 273 272 274 277 280 281 281 282 281 278 277 277 277 278
218 216 215 216 217 222 229 228 221 222 229 240 249 251 255 268 283 292 293 291 285 278 274 272 271 272 275 279 281 284 285 280 276 276 280 287 289 286 284 282 283 285 284 280 276 274 276 276 276 276 278 278 278 277 276 276 276 276 276 275 274 273 273 275 277 279 280 280 278 276 276 276 275 277
217 216 215 216 219 222 223 222 220 220 225 230 233 237 246 255 265 276 282 281 276 270 269 268 267 269 275 280 282 285 287 280 276 275 275 278 283 285 284 284 286 288 286 281 277 276 278 278 276 276 276 278 279 279 278 278 277 276 275 274 274 273 273 274 276 277 278 278 276 274 274 274 275 279
215 214 213 215 220 223 223 223 224 222 220 221 226 234 245 253 263 272 276 273 267 263 262 264 267 270 273 276 279 283 283 279 280 282 280 278 280 285 287 288 289 289 286 282 279 279 280 280 278 277 278 279 279 279 278 277 276 276 276 276 275 273 274 276 277 276 276 275 274 274 274 275 276 278
215 215 215 219 226 229 227 226 227 227 226 227 231 238 245 253 261 266 267 266 263 260 260 262 266 269 269 273 279 283 285 286 287 289 290 290 293 297 297 295 294 292 287 281 278 279 280 280 280 280 280 282 282 280 279 276 275 276 278 278 278 278 278 278 279 278 276 275 274 273 273 273 274 277
215 216 218 224 230 234 234 234 235 235 237 239 242 248 253 259 264 265 264 263 262 261 262 264 266 268 271 276 281 284 286 287 288 291 295 296 297 299 297 295 295 294 290 287 285 283 282 283 283 283 283 283 283 282 280 279 278 278 279 280 280 279 278 279 280 279 277 276 273 271 270 271 274 277
216 218 221 226 232 237 240 243 244 244 245 249 253 258 261 264 267 268 266 263 263 263 265 266 265 268 274 278 280 282 286 287 288 292 294 294 294 293 291 288 288 290 292 293 292 288 286 287 287 285 286 286 284 283 282 283 283 280 280 281 280 279 281 284 286 285 282 279 275 272 271 273 275 277
217 219 221 222 228 238 244 247 250 251 253 256 258 261 263 264 265 267 266 264 263 264 265 264 264 269 274 275 276 281 287 290 293 295 296 295 293 291 288 286 286 288 289 288 287 286 286 288 285 284 286 287 285 285 285 285 284 282 281 281 282 285 289 292 292 290 286 281 277 274 274 276 277 278
217 220 224 225 226 231 240 247 251 254 255 257 259 261 262 263 265 267 268 269 268 268 267 264 265 271 275 276 279 285 287 286 288 293 293 293 291 288 286 286 286 288 288 285 281 279 282 285 281 278 283 287 287 287 288 286 286 286 286 287 288 290 292 292 290 287 284 280 276 275 277 279 279 279
217 223 226 227 224 225 235 246 252 255 255 253 252 254 256 260 265 267 270 272 273 272 270 268 272 279 282 280 280 279 274 275 286 292 292 290 288 286 285 285 286 287 288 284 277 274 282 287 281 278 285 290 290 291 292 292 291 291 290 290 290 290 290 289 287 283 280 278 277 278 279 280 280 278
225 228 227 228 232 237 243 251 256 256 253 248 247 249 252 257 262 266 270 273 274 273 273 277 280 280 278 277 276 274 276 287 296 296 290 286 283 280 280 280 278 280 284 282 276 275 283 289 287 289 296 298 297 297 296 294 293 291 291 290 290 290 289 287 285 282 279 279 281 282 282 281 281 280
229 229 231 237 244 247 248 253 259 257 250 245 245 248 253 258 264 270 274 277 279 277 278 282 283 279 278 280 284 286 289 294 295 286 276 277 277 273 270 270 270 276 281 281 279 279 285 296 302 305 306 303 300 299 295 292 292 291 290 289 289 289 287 285 284 283 281 282 284 285 284 283 283 281
226 231 239 239 238 243 248 253 256 254 249 246 247 250 257 265 269 274 278 280 284 286 287 291 291 290 291 291 291 293 292 291 286 273 269 273 271 263 261 269 275 280 278 281 291 298 303 312 317 316 311 303 297 295 292 292 293 292 291 290 290 290 288 287 287 286 284 285 286 286 286 285 283 280
224 233 239 237 235 241 247 247 248 252 253 252 250 251 261 268 270 273 279 285 293 293 292 296 297 296 295 293 292 293 292 293 291 284 279 277 269 260 263 274 283 286 281 290 311 317 314 316 317 313 308 302 296 295 293 294 295 294 294 293 292 293 293 292 291 290 288 287 288 288 286 283 281 277
225 233 240 241 242 247 248 246 249 256 259 256 251 250 259 267 267 271 277 285 294 297 296 300 301 298 295 291 289 291 297 301 301 297 294 288 274 265 271 281 290 295 297 304 312 313 312 311 308 302 297 291 293 296 296 296 296 297 297 296 294 296 298 297 295 293 291 290 291 289 285 281 277 274
227 235 240 239 238 241 242 245 249 254 256 258 256 254 254 258 263 271 281 289 296 300 300 299 297 293 294 295 296 299 302 302 301 302 307 309 297 292 299 306 306 302 300 303 306 306 305 302 297 294 293 288 287 293 297 298 298 298 299 299 298 299 300 299 296 295 294 295 294 291 286 281 277 272
230 234 232 226 227 230 231 233 240 248 256 260 259 258 260 263 268 275 284 291 295 297 295 292 288 289 298 304 305 303 301 300 303 308 313 312 308 308 309 308 303 298 298 301 302 300 295 290 287 287 287 285 287 292 296 297 300 303 305 305 304 304 303 302 300 298 298 297 296 295 294 289 281 275
225 221 214 213 217 221 222 228 240 252 261 261 260 263 266 269 274 280 286 290 293 292 288 283 284 294 304 308 307 307 309 310 311 312 311 307 305 304 302 298 294 292 294 297 298 294 287 282 281 281 281 285 290 293 291 292 299 306 309 308 308 308 309 308 305 301 299 298 299 303 303 299 291 282
204 199 202 206 208 213 219 231 245 256 262 262 261 264 265 267 276 284 286 285 283 280 282 288 300 311 316 316 314 316 318 317 314 312 310 306 302 298 295 294 294 295 296 295 294 290 284 279 280 282 286 287 285 282 285 291 299 305 307 309 310 311 313 313 310 305 303 302 303 304 304 301 298 292
206 202 203 199 200 209 220 233 248 256 258 258 258 262 264 268 280 286 282 280 277 275 281 301 313 313 311 311 312 313 312 312 310 308 304 299 296 296 298 300 300 300 299 296 292 289 287 286 287 290 293 290 281 277 285 296 303 306 307 308 309 311 313 315 313 311 309 307 306 305 302 300 299 295
206 200 197 198 203 218 235 245 251 248 246 251 260 267 268 268 271 271 270 269 266 264 272 289 299 299 298 302 307 308 307 305 303 300 299 299 301 304 305 304 303 303 302 298 294 295 298 299 298 298 297 293 285 282 290 299 303 305 307 310 310 311 314 316 316 315 312 309 307 305 303 301 298 294
195 194 197 207 223 239 243 242 239 236 240 250 257 259 259 257 255 260 268 265 256 259 272 283 285 287 295 305 310 308 304 301 301 303 304 303 304 305 305 301 299 301 303 302 301 304 307 308 307 305 300 293 287 289 296 301 302 303 307 311 312 311 314 316 317 316 314 312 309 307 305 304 301 296
193 198 205 219 235 235 228 223 221 227 239 247 247 252 259 256 250 255 265 264 262 267 275 278 277 288 311 317 313 308 302 301 303 306 306 304 305 304 301 295 292 295 301 305 307 310 311 311 311 311 305 296 291 294 302 306 305 303 305 310 312 312 314 317 317 316 317 315 311 308 307 306 304 302
198 204 210 214 214 209 206 208 210 219 233 236 235 242 248 244 246 258 262 263 273 285 294 301 310 322 326 319 309 304 302 302 305 308 308 306 304 301 297 290 290 295 301 306 310 312 313 315 316 314 311 303 295 295 302 306 305 304 306 309 312 313 315 318 318 317 318 316 310 308 309 309 309 311
194 199 204 205 202 203 211 220 223 234 241 236 231 238 240 239 255 271 271 292 342 354 353 346 337 328 320 313 305 301 300 302 307 310 308 305 304 303 300 296 297 304 307 308 311 314 315 320 320 316 314 313 305 302 305 301 297 302 310 312 313 315 318 320 320 318 318 315 310 307 309 310 311 314
194 206 213 218 220 222 234 245 249 254 259 256 256 265 268 278 286 285 286 3 4 0 352 342 333 322 312 303 298 297 300 305 310 310 308 310 309 306 302 302 307 314 315 313 314 315 315 319 322 319 318 319 313 312 317 314 304 307 313 315 317 320 321 322 322 319 317 318 315 309 309 311 312 312
206 225 233 241 245 243 253 263 266 269 272 281 293 289 279 285 290 292 41 15 358 358 347 330 313 300 297 295 297 304 310 312 310 309 311 314 311 307 308 314 317 317 317 316 315 312 311 319 328 325 319 318 316 314 320 323 324 322 318 317 322 326 324 323 323 321 319 320 321 316 311 310 309 308
222 237 242 253 257 256 265 269 269 267 257 264 290 297 293 293 293 298 40 15 4 356 333 308 293 294 302 308 312 315 312 308 307 312 316 315 313 314 320 321 319 318 318 316 311 308 311 325 333 328 318 314 318 312 313 321 329 334 331 324 326 329 328 326 325 325 325 325 325 323 318 310 307 308
234 242 247 264 272 279 290 295 298 305 299 282 303 306 308 308 301 294 14 18 3 346 323 306 305 313 316 315 312 307 305 306 312 317 318 315 318 325 325 320 319 318 315 310 309 312 318 328 331 328 322 317 314 312 313 318 324 331 336 334 331 330 330 329 328 327 328 330 331 329 324 314 307 308
236 249 259 270 284 312 344 2 4 353 345 332 315 309 314 314 310 314 19 34 6 339 325 318 317 315 309 304 304 303 307 314 319 320 318 320 324 326 321 316 315 313 310 311 316 318 320 327 332 328 320 313 305 303 306 308 312 322 334 339 338 335 333 331 332 332 332 337 339 334 331 328 323 323
228 232 235 248 291 339 350 342 328 320 309 297 287 288 302 314 322 340 10 21 346 318 313 312 307 300 296 298 304 308 314 320 320 318 320 325 326 321 316 315 314 312 312 316 319 318 321 332 336 327 316 315 318 313 308 309 314 325 334 339 342 344 341 337 337 337 337 344 348 342 338 337 335 335
222 222 224 230 264 290 288 295 296 292 292 292 293 295 299 303 316 340 347 337 313 301 300 299 289 282 289 303 312 316 319 318 318 322 326 326 321 317 318 320 318 318 320 319 317 320 326 331 333 328 320 321 328 325 316 315 326 333 335 337 342 348 350 347 346 346 347 354 359 353 343 338 335 335
217 218 214 200 205 246 266 275 266 267 295 314 323 328 318 305 336 7 338 307 291 283 282 281 278 284 302 314 316 318 319 318 320 325 324 320 317 318 322 324 321 322 323 319 318 325 328 327 329 331 326 324 330 330 324 329 339 337 335 337 343 349 352 353 354 357 360 7 11 6 351 343 342 341
205 196 182 174 215 239 256 261 254 268 313 324 318 312 302 305 332 346 327 300 284 274 270 277 291 304 311 314 317 320 320 318 319 319 316 317 320 322 323 324 324 325 324 321 324 329 329 326 326 326 325 330 339 339 333 337 343 341 339 339 343 348 351 353 357 3 9 15 20 20 10 0 358 349
183 176 186 204 217 227 234 242 249 257 277 292 289 280 277 296 313 314 300 291 288 283 281 294 307 307 308 316 323 321 316 314 312 312 315 321 324 324 324 326 327 327 326 327 331 331 328 325 324 321 325 342 353 348 341 342 345 346 346 346 347 348 350 353 356 1 9 15 19 24 24 17 13 8
178 187 204 208 213 224 229 233 238 243 249 257 259 256 268 314 300 286 280 279 280 282 285 293 297 300 311 323 320 312 310 311 313 317 323 325 324 326 329 329 327 326 329 334 334 328 325 325 321 318 329 358 4 358 355 355 354 354 354 353 353 351 352 354 356 358 4 9 12 20 27 24 19 19
Height
830 831 831 832 832 833 833 834 835 836 837 837 838 839 840 842 843 844 843 841 838 837 837 836 835 835 835 834 834 834 834 834 834 834 833 833 832 832 832 831 831 831 830 830 830 829 829 829 829 828 828 828 828 828 827 827 827 826 826 826 825 824 824 823 822 821 821 821 820 820 820 820 820 820
827 828 829 830 831 831 832 833 834 835 836 836 837 839 840 841 841 842 843 841 838 837 837 836 835 834 834 834 833 832 832 832 832 832 832 831 831 830 830 829 829 828 828 827 827 827 826 826 826 826 825 825 825 825 824 824 824 823 823 823 822 822 821 820 820 819 818 818 818 817 817 817 817 817
825 826 827 828 829 830 831 832 833 834 835 836 836 837 838 840 840 840 840 840 837 836 836 835 835 835 834 834 832 831 831 831 831 830 830 830 829 829 828 828 827 826 825 824 824 824 823 823 823 823 822 822 822 822 821 821 821 820 820 820 819 819 818 818 817 817 816 815 815 815 814 814 814 814
825 825 825 826 827 829 830 831 833 833 834 834 835 836 836 837 838 838 838 838 836 836 836 835 835 835 834 833 832 830 829 829 829 829 828 828 828 827 826 825 825 824 822 822 821 820 820 820 820 819 819 819 819 818 818 818 818 817 817 816 816 815 815 814 814 813 813 812 812 811 811 811 811 811
825 825 825 825 826 827 829 830 831 832 833 833 833 834 834 834 835 836 836 836 835 835 835 835 834 834 833 831 830 829 827 826 826 826 826 826 825 824 823 822 822 821 820 819 818 818 817 816 816 816 816 816 815 815 815 815 814 814 813 813 812 812 812 811 810 810 810 809 809 808 808 808 807 807
823 824 824 824 825 826 827 828 830 831 832 832 832 832 832 833 834 834 835 835 835 834 833 833 833 831 830 829 828 827 826 824 824 823 823 823 822 822 821 820 819 818 818 817 816 815 814 814 813 813 813 812 812 811 811 811 810 810 810 809 809 808 808 808 807 807 806 806 805 805 804 804 804 804
821 822 822 823 824 825 826 827 828 829 830 831 831 831 832 832 833 833 834 833 833 832 831 831 830 828 827 826 825 824 823 822 822 821 821 820 819 818 818 817 816 815 815 814 813 812 812 811 810 810 809 809 808 808 807 807 806 806 806 805 805 805 804 804 803 803 802 802 801 801 800 800 800 800
819 819 820 821 823 824 825 825 826 827 829 830 830 830 831 831 831 832 832 831 831 830 829 828 827 826 825 824 823 822 821 820 819 819 818 817 816 815 814 814 813 812 812 811 810 809 808 807 807 806 805 805 804 804 803 803 802 802 802 801 801 801 800 800 799 799 798 798 797 797 796 796 796 796
816 817 818 819 821 822 822 824 825 826 827 828 829 829 829 829 830 830 830 830 829 828 827 825 825 824 824 822 821 820 819 817 816 816 815 814 813 812 811 811 810 809 808 808 807 806 805 804 802 802 802 801 800 799 799 799 798 798 797 797 797 796 796 795 795 794 793 793 793 792 792 792 792 792
814 814 815 817 818 819 820 821 822 822 824 825 826 827 828 828 828 828 828 828 827 826 825 823 822 821 820 819 818 817 817 815 813 812 812 811 811 810 809 808 807 806 805 804 804 803 801 800 799 798 797 796 796 795 794 794 794 793 793 793 792 792 791 791 790 789 789 788 788 788 787 788 787 787
812 813 813 814 815 816 818 819 819 819 820 822 823 824 825 825 826 826 826 826 825 824 823 821 820 818 818 817 815 815 814 813 811 810 809 808 807 807 806 805 804 803 802 801 800 799 798 797 795 794 793 792 791 790 790 789 789 789 789 788 788 787 787 786 785 784 784 784 784 783 783 783 782 782
810 810 811 812 812 813 814 815 816 817 817 819 820 820 822 823 823 823 823 823 822 821 819 818 817 816 815 814 813 812 811 810 808 807 807 805 804 803 803 802 802 800 799 798 797 796 794 793 791 790 789 788 787 786 786 786 785 785 784 783 783 783 782 781 781 780 780 780 779 779 778 778 777 777
807 808 808 809 810 811 811 812 813 814 815 816 816 817 818 819 820 819 819 819 818 817 816 815 814 814 813 811 810 809 808 807 805 805 804 802 801 801 800 799 799 798 796 794 793 792 790 788 787 786 785 784 783 783 782 782 781 780 779 779 778 778 777 777 777 776 776 775 775 775 774 773 772 772
805 806 806 807 808 809 810 811 811 811 812 812 813 813 814 814 815 815 815 815 814 814 813 812 812 811 809 808 807 806 805 805 804 803 802 801 799 799 797 795 795 795 793 791 789 788 787 785 783 782 781 780 780 779 778 777 777 776 775 775 774 774 773 773 772 771 771 770 769 769 768 768 767 766
803 803 805 805 806 808 809 809 810 810 810 810 810 810 810 810 811 811 811 811 811 811 811 810 809 808 806 805 805 804 803 803 802 801 800 799 798 797 795 793 792 792 791 789 785 783 783 782 779 778 778 777 775 775 774 773 773 772 772 771 770 770 769 768 768 766 766 765 764 764 763 762 761 760
800 801 803 803 804 805 806 807 808 808 808 807 807 807 807 807 807 807 808 808 808 808 808 807 807 805 804 803 803 802 802 801 800 799 798 797 796 795 794 792 790 790 790 787 782 779 779 778 776 774 774 773 771 771 770 770 769 768 768 767 766 766 765 764 763 762 761 760 759 758 757 756 755 754
798 799 800 801 801 803 804 806 807 807 806 805 804 804 804 804 804 804 805 805 804 805 806 805 804 803 802 801 800 800 800 799 798 797 796 796 795 793 792 790 788 787 787 785 780 775 774 775 773 771 771 770 768 767 767 766 765 764 764 763 762 762 761 759 758 757 756 755 753 752 751 750 749 748
795 797 799 800 800 802 803 804 804 804 804 803 801 801 801 801 802 801 801 801 802 802 803 802 801 800 800 799 798 798 798 797 796 795 794 793 792 791 789 787 786 784 783 782 778 772 771 772 770 767 767 766 764 763 763 762 762 761 760 759 758 757 756 755 753 752 750 749 748 746 745 744 742 741
794 795 797 799 799 800 801 801 800 800 801 800 799 799 799 799 799 799 799 799 799 799 799 799 798 797 797 796 796 796 796 795 794 793 792 791 789 787 786 784 783 781 780 779 776 770 768 769 767 764 764 763 761 760 760 759 759 758 756 755 754 753 752 750 748 746 744 743 742 740 738 736 734 732
792 794 796 797 797 798 798 799 798 799 800 799 797 797 797 798 798 798 798 797 797 797 797 796 796 795 795 794 794 793 793 792 791 790 789 788 786 784 783 781 780 778 777 776 773 768 765 766 764 761 761 760 758 757 757 756 755 754 752 751 750 748 747 745 743 741 738 737 735 732 730 727 725 723
791 792 794 795 795 796 796 797 797 798 798 796 795 795 796 797 797 796 796 796 795 795 794 794 793 793 792 792 792 791 791 789 789 788 786 785 783 782 780 777 776 775 773 772 771 766 763 764 762 759 758 758 756 754 753 752 751 750 748 747 746 744 742 739 737 734 732 729 726 723 720 718 715 713
788 789 791 792 793 793 793 794 795 796 796 794 794 794 795 795 795 795 794 794 793 793 792 791 791 790 790 790 789 788 787 786 786 785 783 781 780 779 777 775 773 772 771 770 768 765 762 762 761 759 756 754 753 752 750 749 748 746 745 743 742 740 737 733 730 728 725 721 717 714 711 709 706 705
786 787 788 789 790 790 791 792 794 795 794 793 793 793 794 794 794 793 793 792 791 791 790 789 789 788 788 787 786 785 784 783 783 781 779 778 777 776 775 774 773 771 768 767 767 764 762 761 761 760 757 752 750 749 748 746 744 743 742 739 737 734 731 727 724 721 717 713 709 705 702 701 699 697
784 785 785 786 787 788 789 791 792 792 792 791 792 792 793 793 792 791 791 790 789 789 788 787 787 786 785 784 783 783 782 781 780 779 777 776 775 774 774 773 772 770 767 766 766 764 762 761 760 760 758 754 748 745 744 743 741 739 738 735 732 729 725 721 717 713 709 705 701 698 695 693 692 691
782 783 783 783 785 786 787 789 790 790 790 790 790 791 791 791 790 789 789 788 787 787 786 786 785 784 783 782 781 781 780 779 778 777 776 775 774 773 772 771 770 767 765 765 766 764 762 760 758 757 756 753 749 744 741 739 736 735 733 730 727 723 719 715 710 706 702 698 694 691 688 685 684 683
779 780 781 782 783 784 786 787 788 788 788 789 789 790 789 789 788 788 787 786 786 786 785 784 784 783 782 781 780 780 779 778 777 776 774 773 772 771 771 770 768 766 763 763 764 763 761 758 756 754 753 750 747 743 740 735 730 728 727 725 722 718 714 710 704 699 695 692 689 685 682 679 676 674
777 778 779 780 781 783 784 785 786 786 787 787 788 788 788 787 787 786 785 785 784 784 783 783 782 781 781 780 779 778 778 777 775 774 773 772 771 770 769 768 767 765 763 761 761 760 758 755 752 751 750 747 745 742 739 734 728 723 721 718 716 712 708 704 699 694 690 687 683 679 675 672 669 667
775 776 777 778 780 781 782 783 784 785 785 786 787 787 786 785 785 784 783 783 782 782 782 782 781 780 779 779 778 777 776 775 774 773 772 771 770 769 767 766 764 763 761 759 757 756 754 752 749 748 747 745 743 739 735 731 726 722 717 713 710 707 703 699 695 690 686 682 678 674 670 666 663 661
774 774 776 777 779 780 781 782 782 783 784 785 785 784 784 783 783 782 782 781 781 781 780 780 779 778 778 778 777 776 775 774 772 771 770 769 768 767 765 763 762 760 758 756 754 752 751 749 747 746 744 742 739 736 732 728 723 719 715 710 705 702 699 695 691 686 682 677 673 669 666 662 659 656
772 774 775 776 777 778 779 780 781 782 783 783 782 782 781 781 781 780 780 780 780 779 778 777 777 776 776 776 775 774 774 772 771 770 769 767 766 765 763 761 758 756 754 753 751 749 748 747 745 743 741 738 736 733 730 727 722 716 712 708 702 696 693 691 687 682 678 673 668 664 660 657 654 650
771 773 774 775 776 777 778 779 780 780 781 780 780 780 779 779 779 778 778 778 777 776 775 774 774 774 774 774 774 773 772 771 770 769 767 766 764 763 761 759 756 752 750 749 748 747 746 744 742 740 738 735 733 730 728 725 721 714 709 705 701 695 690 686 682 678 674 669 662 658 654 651 647 644
770 772 773 774 775 776 777 778 778 778 778 778 777 777 777 776 776 776 776 775 774 774 773 772 772 773 773 772 772 772 771 770 768 767 766 764 763 761 759 757 753 750 748 746 745 744 743 741 739 737 735 733 730 727 725 721 717 712 707 703 699 694 689 684 679 674 670 665 658 653 649 645 642 638
769 771 771 773 774 774 775 775 775 775 775 774 774 774 774 774 774 774 773 773 773 772 772 772 772 772 771 771 771 770 769 768 767 766 764 763 761 759 756 754 752 749 746 744 742 740 739 738 736 734 732 730 727 725 723 718 713 709 706 701 697 692 687 683 678 673 668 663 656 649 644 640 636 632
768 769 770 771 771 772 772 772 772 772 771 771 771 771 772 772 772 772 772 772 771 771 771 771 771 771 770 770 770 769 768 767 766 764 763 761 759 757 755 752 750 748 745 743 740 738 736 735 733 730 728 726 724 722 721 717 711 707 704 700 695 690 685 680 676 671 666 661 655 648 641 636 632 628
767 768 768 768 768 769 769 768 768 769 768 768 769 770 770 771 771 770 770 770 770 770 770 770 770 770 770 769 769 768 767 765 764 763 761 759 757 755 753 751 748 746 744 742 739 737 735 733 730 728 725 723 720 717 715 714 711 706 702 698 694 689 684 678 674 669 664 659 654 648 641 634 628 623
766 766 766 766 766 766 766 766 766 766 766 766 768 768 769 769 769 769 768 768 768 768 768 769 770 769 769 768 767 766 766 764 763 761 759 757 756 753 751 750 748 746 744 741 739 736 733 731 730 727 725 723 720 716 712 710 709 706 701 696 692 688 683 677 672 667 662 657 652 648 642 635 627 621
765 765 765 764 764 764 765 765 765 764 764 765 766 767 768 768 768 768 767 767 766 766 768 769 769 768 768 767 766 766 765 763 762 760 758 756 754 752 750 749 747 745 743 740 737 734 732 730 729 727 725 723 720 717 711 707 705 704 701 696 691 686 682 676 670 664 660 655 651 646 642 635 626 619
764 764 763 763 763 764 763 763 763 763 763 764 765 766 767 767 767 767 765 765 765 767 768 769 768 767 767 766 765 765 763 762 760 759 757 755 753 751 750 748 746 744 742 739 736 733 731 729 728 726 724 722 720 717 711 706 702 700 698 696 691 686 681 676 669 663 657 653 649 644 639 634 627 619
762 762 762 762 762 763 762 762 763 763 764 764 765 766 766 767 767 766 763 762 765 768 768 768 767 767 767 765 765 764 762 761 759 758 756 754 752 751 750 747 745 743 740 737 735 733 730 729 727 725 723 721 718 715 712 707 703 699 697 695 692 687 681 675 669 663 657 651 646 640 634 629 623 617
761 761 761 761 761 762 762 763 763 764 764 764 765 765 765 765 765 764 763 762 765 767 768 767 767 767 766 764 764 763 761 760 759 757 755 754 752 751 749 747 744 742 739 737 734 732 730 728 726 724 721 719 716 714 711 708 704 700 696 693 691 687 682 676 670 664 658 652 646 639 632 625 619 613
759 760 760 760 760 761 762 762 763 764 764 764 764 764 764 764 763 763 763 764 766 767 767 766 766 765 764 764 763 762 761 759 758 756 755 753 752 750 748 745 743 741 738 736 734 731 729 728 725 723 720 717 715 713 710 707 703 699 695 692 688 685 682 677 672 666 661 655 648 642 636 630 623 617
758 758 759 758 759 760 761 762 763 763 763 763 763 763 763 763 763 763 764 765 765 765 765 764 764 764 764 763 762 761 760 759 757 756 755 753 751 749 747 745 743 740 738 736 733 731 729 727 724 722 719 716 714 712 710 707 704 700 696 692 687 683 680 677 673 668 663 657 652 646 640 633 627 622
755 756 757 757 758 759 761 761 762 762 763 763 763 763 763 762 762 762 763 764 764 764 764 763 763 763 763 763 762 761 760 759 757 755 754 752 750 748 746 744 742 740 738 735 733 731 728 726 723 720 718 715 713 712 711 708 705 702 698 693 688 683 679 675 671 667 663 659 655 651 647 643 637 632
754 754 755 756 758 759 760 760 761 761 761 761 761 761 762 761 762 763 764 764 763 763 763 763 763 763 763 762 761 761 759 758 756 755 753 751 750 748 746 744 742 740 737 735 732 730 728 725 722 719 717 715 714 712 710 708 706 703 700 696 691 685 680 676 671 666 662 659 655 652 650 647 644 640
752 753 754 755 756 757 758 759 759 759 759 759 759 760 760 760 761 762 763 763 762 762 762 762 762 762 762 761 761 760 759 757 755 754 752 751 749 747 746 744 742 739 737 735 732 730 727 724 721 718 716 715 714 712 710 709 707 704 701 697 693 688 684 679 674 668 663 660 657 654 650 646 643 639